Weather History for Scottsboro, AL

Change the Weather History Date:

Thursday, February 7, 2013

  Actual Average (KHSV) Record (KHSV)
Temperature  
Mean Temperature 50 °F 44 °F  
Max Temperature 55 °F 54 °F 73 °F (1999)
Min Temperature 44 °F 34 °F 12 °F (1988)
Degree Days  
Heating Degree Days 16 21  
Month to date heating degree days 152  
Since 1 July heating degree days 2062  
Cooling Degree Days 0 0  
Month to date cooling degree days 0  
Year to date cooling degree days 0  
Moisture  
Dew Point 45 °F    
Average Humidity 89    
Maximum Humidity 100    
Minimum Humidity 67    
Precipitation  
Precipitation 0.02 in 0.16 in 1.95 in (1903)
Month to date precipitation 1.18  
Year to date precipitation 6.07  
Snow  
Snow 0.00 in - - ()
Month to date snowfall  
Since 1 July snowfall  
Snow Depth -    
Sea Level Pressure  
Sea Level Pressure 30.04 in    
Wind  
Wind Speed 1 mph (NE)    
Max Wind Speed 8 mph    
Max Gust Speed 16 mph    
Visibility 4 miles    
Events Rain    
T = Trace of Precipitation, MM = Missing Value Source: NWS Daily Summary

Daily Weather History Graph

Daily Weather History Graph

Search for Another Location

Airport:

Trip Planner

Search our weather history database for the weather conditions in past years. The results will help you decide how hot, cold, wet, or windy it might be!

Date:

Astronomy

Feb. 07, 2013 Rise Set
Actual Time 6:37 AM CST 5:19 PM CST
Civil Twilight 6:10 AM CST 5:45 PM CST
Nautical Twilight 5:41 AM CST 6:15 PM CST
Astronomical Twilight 5:11 AM CST 6:45 PM CST
Moon 4:12 AM CST (2/7) 2:46 PM CST (2/7)
Length of Visible Light 11h 34m
Length of Day
10h 42m
Waning Crescent, 9% of the Moon is Illuminated
Feb 7
Waning Crescent
Feb 10
New
Feb 17
First Quarter
Feb 25
Full
Mar 4
Last Quarter

Hourly Weather History & Observations

Time (CST) Temp. Windchill Dew Point Humidity Pressure Visibility Wind Dir Wind Speed Gust Speed Precip Events Conditions
12:15 AM 44.6 °F - 39.2 °F 81% 30.11 in 5.0 mi Calm Calm - N/A   Scattered Clouds
12:35 AM 44.6 °F - 39.2 °F 81% 30.12 in 6.0 mi Calm Calm - N/A   Mostly Cloudy
12:55 AM 44.6 °F - 39.2 °F 81% 30.13 in 5.0 mi Calm Calm - N/A   Haze
1:15 AM 44.6 °F - 39.2 °F 81% 30.13 in 6.0 mi Calm Calm - N/A   Haze
1:35 AM 44.6 °F 43.1 °F 39.2 °F 81% 30.13 in 5.0 mi ENE 3.5 mph - N/A   Mostly Cloudy
1:55 AM 44.6 °F - 39.2 °F 81% 30.12 in 5.0 mi Calm Calm - N/A   Overcast
2:15 AM 44.6 °F - 39.2 °F 81% 30.12 in 5.0 mi Calm Calm - N/A   Overcast
2:35 AM 44.6 °F 43.1 °F 39.2 °F 81% 30.11 in 6.0 mi NE 3.5 mph - N/A   Overcast
2:55 AM 44.6 °F 43.1 °F 39.2 °F 81% 30.10 in 5.0 mi North 3.5 mph - N/A   Overcast
3:15 AM 44.6 °F 43.1 °F 39.2 °F 81% 30.10 in 6.0 mi North 3.5 mph - N/A   Overcast
3:35 AM 44.6 °F - 39.2 °F 81% 30.11 in 5.0 mi Calm Calm - N/A   Haze
3:55 AM 46.4 °F 45.2 °F 37.4 °F 71% 30.11 in 5.0 mi South 3.5 mph - N/A   Haze
4:15 AM 46.4 °F - 39.2 °F 76% 30.12 in 5.0 mi Calm Calm - N/A   Haze
4:35 AM 44.6 °F - 39.2 °F 81% 30.12 in 5.0 mi Calm Calm - N/A   Haze
4:55 AM 44.6 °F - 39.2 °F 81% 30.12 in 5.0 mi Calm Calm - N/A Rain Light Rain
5:15 AM 44.6 °F - 41.0 °F 87% 30.13 in 3.0 mi Calm Calm - N/A Rain Light Rain
5:35 AM 44.6 °F - 41.0 °F 87% 30.13 in 3.0 mi Calm Calm - 0.01 in Rain Light Rain
5:55 AM 44.6 °F 43.1 °F 42.8 °F 93% 30.12 in 3.0 mi ENE 3.5 mph - 0.01 in Rain Light Rain
6:15 AM 44.6 °F - 42.8 °F 93% 30.11 in 3.0 mi Calm Calm - N/A Rain Light Rain
6:35 AM 44.6 °F - 41.0 °F 87% 30.11 in 5.0 mi Calm Calm - N/A   Mostly Cloudy
6:55 AM 44.6 °F - 41.0 °F 87% 30.10 in 5.0 mi Calm Calm - N/A   Overcast
7:15 AM 44.6 °F - 41.0 °F 87% 30.11 in 4.0 mi Calm Calm - N/A   Mostly Cloudy
7:35 AM 44.6 °F - 42.8 °F 93% 30.09 in 3.0 mi Calm Calm - N/A   Overcast
7:55 AM 44.6 °F - 42.8 °F 93% 30.08 in 3.0 mi Calm Calm - N/A   Overcast
8:15 AM 46.4 °F - 44.6 °F 93% 30.07 in 4.0 mi Calm Calm - N/A   Overcast
8:35 AM 46.4 °F - 44.6 °F 93% 30.07 in 4.0 mi Calm Calm - N/A   Overcast
8:55 AM 46.4 °F - 44.6 °F 93% 30.07 in 4.0 mi Calm Calm - N/A   Overcast
9:15 AM 46.4 °F - 44.6 °F 93% 30.07 in 4.0 mi Calm Calm - N/A   Overcast
9:35 AM 48.2 °F - 44.6 °F 87% 30.06 in 5.0 mi Calm Calm - N/A   Overcast
9:55 AM 48.2 °F - 44.6 °F 87% 30.06 in 4.0 mi Calm Calm - N/A   Overcast
10:15 AM 50.0 °F - 44.6 °F 82% 30.06 in 4.0 mi NNE 3.5 mph - N/A   Haze
10:35 AM 50.0 °F - 46.4 °F 87% 30.05 in 4.0 mi Calm Calm - N/A   Overcast
10:55 AM 50.0 °F - 46.4 °F 87% 30.04 in 4.0 mi Calm Calm - N/A   Haze
11:15 AM 51.8 °F - 44.6 °F 76% 30.02 in 4.0 mi North 3.5 mph - N/A   Haze
11:55 AM 53.6 °F - 46.4 °F 77% 30.02 in 5.0 mi Calm Calm - N/A   Haze
12:15 PM 55.4 °F - 44.6 °F 67% 30.01 in 4.0 mi NNE 3.5 mph - N/A   Haze
12:55 PM 55.4 °F - 44.6 °F 67% 29.99 in 4.0 mi Calm Calm - N/A   Haze
1:15 PM 55.4 °F - 44.6 °F 67% 29.98 in 5.0 mi SSE 3.5 mph - N/A   Haze
1:55 PM 55.4 °F - 44.6 °F 67% 29.98 in 4.0 mi SE 3.5 mph - N/A   Haze
2:15 PM 53.6 °F - 44.6 °F 72% 29.98 in 2.5 mi SSE 8.1 mph 16.1 mph N/A   Haze
2:35 PM 53.6 °F - 46.4 °F 77% 29.98 in 2.5 mi East 6.9 mph - N/A   Haze
3:15 PM 50.0 °F - 50.0 °F 100% 29.97 in 1.0 mi ENE 3.5 mph - N/A Rain Light Rain
3:35 PM 50.0 °F - 50.0 °F 100% 29.97 in 1.0 mi NNE 4.6 mph - 0.01 in Rain Light Rain
3:55 PM 50.0 °F - 50.0 °F 100% 29.97 in 1.0 mi NE 4.6 mph - 0.01 in Rain Light Rain
4:15 PM 50.0 °F - 50.0 °F 100% 29.97 in 0.8 mi NNE 3.5 mph - N/A Rain Light Rain
4:35 PM 50.0 °F - 50.0 °F 100% 29.97 in 1.0 mi NE 3.5 mph - N/A Rain Light Rain
4:55 PM 50.0 °F - 50.0 °F 100% 29.97 in 1.0 mi NE 4.6 mph - N/A Rain Light Rain
5:15 PM 50.0 °F - 50.0 °F 100% 29.97 in 1.5 mi NE 3.5 mph - N/A   Overcast
5:35 PM 50.0 °F - 50.0 °F 100% 29.97 in 2.5 mi Calm Calm - N/A   Mostly Cloudy
5:55 PM 50.0 °F - 50.0 °F 100% 29.97 in 2.5 mi North 3.5 mph - N/A   Mostly Cloudy
6:15 PM 50.0 °F - 50.0 °F 100% 29.97 in 2.5 mi NNE 4.6 mph - N/A   Overcast
6:35 PM 50.0 °F - 50.0 °F 100% 29.97 in 3.0 mi Calm Calm - N/A   Overcast
6:55 PM 50.0 °F - 50.0 °F 100% 29.96 in 2.5 mi NE 3.5 mph - N/A   Overcast
7:15 PM 50.0 °F - 50.0 °F 100% 29.96 in 3.0 mi NNE 3.5 mph - N/A   Overcast
7:35 PM 50.0 °F - 50.0 °F 100% 29.97 in 3.0 mi NE 3.5 mph - N/A   Overcast
7:55 PM 50.0 °F - 50.0 °F 100% 29.98 in 3.0 mi Calm Calm - N/A   Overcast
8:15 PM 50.0 °F - 48.2 °F 94% 29.98 in 3.0 mi Calm Calm - N/A   Overcast
8:35 PM 50.0 °F - 48.2 °F 94% 29.98 in 3.0 mi Calm Calm - N/A   Overcast
8:55 PM 48.2 °F - 48.2 °F 100% 29.99 in 2.5 mi Calm Calm - N/A   Mostly Cloudy
9:15 PM 48.2 °F - 48.2 °F 100% 29.98 in 2.5 mi East 3.5 mph - N/A   Mostly Cloudy
9:35 PM 48.2 °F - 48.2 °F 100% 29.97 in 2.5 mi East 4.6 mph - N/A   Overcast
9:55 PM 48.2 °F - 48.2 °F 100% 29.96 in 2.5 mi NNE 4.6 mph - N/A   Mostly Cloudy
10:15 PM 48.2 °F - 48.2 °F 100% 29.96 in 2.0 mi NW 3.5 mph - N/A   Overcast
10:55 PM 46.4 °F - 46.4 °F 100% 29.97 in 1.5 mi Calm Calm - N/A   Overcast
11:15 PM 46.4 °F - 46.4 °F 100% 29.97 in 1.8 mi Calm Calm - N/A   Overcast
11:55 PM 48.2 °F - 48.2 °F 100% 29.98 in 1.8 mi SW 4.6 mph - N/A   Overcast